Time,TemperatureF,DewpointF,PressureIn,WindDirection,WindDirectionDegrees,WindSpeedMPH,WindSpeedGustMPH,Humidity,HourlyPrecipIn,Conditions,Clouds,dailyrainin,SoftwareType,DateUTC
2013-04-10 00:03:00,39.0,37.0,29.96,West,280,0.0,0.0,94,0.00,,,0.38,,2013-04-10 04:03:00,
2013-04-10 00:13:00,39.0,37.0,29.96,West,280,0.0,0.0,94,0.00,,,0.38,,2013-04-10 04:13:00,
2013-04-10 00:23:00,39.0,37.0,29.93,NW,306,0.0,0.0,94,0.01,,,0.39,,2013-04-10 04:23:00,
2013-04-10 00:33:00,39.0,37.0,29.92,NW,305,0.0,2.0,94,0.01,,,0.39,,2013-04-10 04:33:00,
2013-04-10 00:43:00,39.0,37.0,29.92,NW,305,0.0,2.0,94,0.01,,,0.39,,2013-04-10 04:43:00,
2013-04-10 00:53:00,39.0,37.0,29.93,NW,305,0.0,0.0,94,0.01,,,0.39,,2013-04-10 04:53:00,
2013-04-10 01:02:00,39.0,38.0,29.93,NW,305,0.0,0.0,95,0.01,,,0.39,,2013-04-10 05:02:00,
2013-04-10 01:13:00,39.0,38.0,29.93,NW,305,0.0,0.0,95,0.01,,,0.39,,2013-04-10 05:13:00,
2013-04-10 01:23:00,39.0,38.0,29.93,NW,305,0.0,0.0,95,0.01,,,0.39,,2013-04-10 05:23:00,
2013-04-10 01:33:00,41.0,40.0,29.90,West,265,327.0,327.0,95,-99.99,,,-99.99,,2013-04-10 05:33:00,
2013-04-10 01:43:00,41.0,40.0,29.90,West,265,327.0,327.0,95,-99.99,,,-99.99,,2013-04-10 05:43:00,
2013-04-10 01:53:00,40.0,39.0,29.91,West,264,0.0,0.0,95,0.01,,,0.40,,2013-04-10 05:53:00,
2013-04-10 02:03:00,40.0,39.0,29.91,West,264,0.0,0.0,95,0.01,,,0.40,,2013-04-10 06:03:00,
2013-04-10 02:12:00,40.0,39.0,29.92,West,264,0.0,0.0,95,0.06,,,0.45,,2013-04-10 06:12:00,
2013-04-10 02:22:00,40.0,39.0,29.92,West,264,0.0,0.0,95,0.06,,,0.45,,2013-04-10 06:22:00,
2013-04-10 02:32:00,40.0,39.0,29.94,SW,226,1.0,6.0,95,0.09,,,0.48,,2013-04-10 06:32:00,
2013-04-10 02:42:00,40.0,39.0,29.94,SW,226,1.0,6.0,95,0.09,,,0.48,,2013-04-10 06:42:00,
2013-04-10 02:52:00,41.0,40.0,29.93,SSW,194,0.0,2.0,95,0.09,,,0.49,,2013-04-10 06:52:00,
2013-04-10 03:02:00,41.0,40.0,29.94,SE,142,1.0,8.0,95,0.10,,,0.52,,2013-04-10 07:02:00,
2013-04-10 03:12:00,41.0,40.0,29.94,SE,142,1.0,8.0,95,0.10,,,0.52,,2013-04-10 07:12:00,
2013-04-10 03:22:00,41.0,40.0,29.93,SW,215,327.0,327.0,95,-99.99,,,-99.99,,2013-04-10 07:22:00,
2013-04-10 03:32:00,41.0,40.0,29.93,West,276,0.0,5.0,95,0.10,,,0.57,,2013-04-10 07:32:00,
2013-04-10 03:42:00,41.0,40.0,29.93,West,276,0.0,5.0,95,0.10,,,0.57,,2013-04-10 07:42:00,
2013-04-10 03:52:00,42.0,41.0,29.92,North,355,327.0,327.0,96,-99.99,,,-99.99,,2013-04-10 07:52:00,
2013-04-10 04:02:00,41.0,40.0,29.91,NE,38,327.0,327.0,95,-99.99,,,-99.99,,2013-04-10 08:02:00,
2013-04-10 04:12:00,41.0,40.0,29.91,NE,38,327.0,327.0,95,-99.99,,,-99.99,,2013-04-10 08:12:00,
2013-04-10 04:22:00,41.0,40.0,29.90,NE,38,0.0,2.0,95,0.08,,,0.59,,2013-04-10 08:22:00,
2013-04-10 04:32:00,41.0,40.0,29.90,West,278,0.0,3.0,96,0.05,,,0.60,,2013-04-10 08:32:00,
2013-04-10 04:42:00,41.0,40.0,29.90,West,278,0.0,3.0,96,0.05,,,0.60,,2013-04-10 08:42:00,
2013-04-10 04:52:00,41.0,40.0,29.90,West,278,0.0,1.0,95,0.02,,,0.49,,2013-04-10 08:52:00,
2013-04-10 05:02:00,41.0,40.0,29.90,NW,313,0.0,3.0,96,0.01,,,0.49,,2013-04-10 09:02:00,
2013-04-10 05:12:00,41.0,40.0,29.90,ESE,106,0.0,5.0,96,0.01,,,0.50,,2013-04-10 09:12:00,
2013-04-10 05:22:00,41.0,40.0,29.90,ESE,106,0.0,5.0,96,0.01,,,0.50,,2013-04-10 09:22:00,
2013-04-10 05:32:00,42.0,41.0,29.90,West,261,0.0,2.0,96,0.01,,,0.50,,2013-04-10 09:32:00,
2013-04-10 05:43:00,42.0,41.0,29.89,WSW,238,1.0,4.0,96,0.01,,,0.34,,2013-04-10 09:43:00,
2013-04-10 05:53:00,42.0,41.0,29.89,WSW,238,1.0,4.0,96,0.01,,,0.34,,2013-04-10 09:53:00,
2013-04-10 06:03:00,42.0,41.0,29.89,West,266,1.0,4.0,96,0.01,,,0.34,,2013-04-10 10:03:00,
2013-04-10 06:13:00,41.0,40.0,29.90,SE,143,0.0,2.0,96,0.00,,,0.34,,2013-04-10 10:13:00,
2013-04-10 06:23:00,41.0,40.0,29.90,SE,143,0.0,2.0,96,0.00,,,0.34,,2013-04-10 10:23:00,
2013-04-10 06:33:00,41.0,40.0,29.90,SE,143,0.0,2.0,95,0.00,,,0.34,,2013-04-10 10:33:00,
2013-04-10 06:43:00,41.0,40.0,29.90,SE,143,0.0,2.0,95,0.00,,,0.34,,2013-04-10 10:43:00,
2013-04-10 06:53:00,41.0,40.0,29.91,NW,317,0.0,2.0,96,0.01,,,0.29,,2013-04-10 10:53:00,
2013-04-10 07:02:00,41.0,40.0,29.92,NW,317,327.0,327.0,96,-99.99,,,-99.99,,2013-04-10 11:02:00,
2013-04-10 07:12:00,41.0,40.0,29.92,NW,317,327.0,327.0,96,-99.99,,,-99.99,,2013-04-10 11:12:00,
2013-04-10 07:22:00,41.0,40.0,29.93,NW,317,0.0,0.0,96,0.01,,,0.29,,2013-04-10 11:22:00,
2013-04-10 07:32:00,41.0,40.0,29.93,NW,317,0.0,0.0,96,0.01,,,0.29,,2013-04-10 11:32:00,
2013-04-10 07:42:00,41.0,40.0,29.93,NW,317,0.0,0.0,96,0.01,,,0.29,,2013-04-10 11:42:00,
2013-04-10 07:52:00,41.0,40.0,29.92,NW,317,0.0,0.0,96,0.00,,,0.29,,2013-04-10 11:52:00,
2013-04-10 08:03:00,41.0,40.0,29.93,NW,317,0.0,0.0,96,0.00,,,0.29,,2013-04-10 12:03:00,
2013-04-10 08:12:00,41.0,40.0,29.93,NW,317,0.0,0.0,96,0.00,,,0.29,,2013-04-10 12:12:00,
2013-04-10 08:23:00,41.0,40.0,29.93,NW,317,0.0,0.0,96,0.00,,,0.29,,2013-04-10 12:23:00,
2013-04-10 08:33:00,42.0,41.0,29.92,NW,317,327.0,327.0,96,-99.99,,,-99.99,,2013-04-10 12:33:00,
2013-04-10 08:42:00,42.0,41.0,29.92,NW,317,327.0,327.0,96,-99.99,,,-99.99,,2013-04-10 12:42:00,
2013-04-10 08:52:00,42.0,41.0,29.93,NW,317,0.0,0.0,96,0.00,,,0.29,,2013-04-10 12:52:00,
2013-04-10 09:02:00,43.0,42.0,29.93,NW,317,327.0,327.0,96,-99.99,,,-99.99,,2013-04-10 13:02:00,
2013-04-10 09:12:00,43.0,42.0,29.93,NW,317,327.0,327.0,96,-99.99,,,-99.99,,2013-04-10 13:12:00,
2013-04-10 09:23:00,43.0,42.0,29.94,NW,317,0.0,0.0,96,0.00,,,0.29,,2013-04-10 13:23:00,
2013-04-10 09:32:00,43.0,42.0,29.94,NW,317,0.0,1.0,96,0.00,,,0.29,,2013-04-10 13:32:00,
2013-04-10 09:43:00,43.0,42.0,29.94,NW,317,0.0,1.0,96,0.00,,,0.29,,2013-04-10 13:43:00,
2013-04-10 09:53:00,43.0,42.0,29.94,NW,317,0.0,2.0,96,0.00,,,0.28,,2013-04-10 13:53:00,
2013-04-10 10:02:00,44.0,43.0,29.93,NW,317,0.0,1.0,96,0.00,,,0.28,,2013-04-10 14:02:00,
2013-04-10 10:12:00,44.0,43.0,29.93,NW,317,0.0,1.0,96,0.00,,,0.28,,2013-04-10 14:12:00,
2013-04-10 10:22:00,45.0,44.0,29.94,NW,317,0.0,1.0,96,0.00,,,0.28,,2013-04-10 14:22:00,
2013-04-10 10:33:00,45.0,44.0,29.94,NW,317,0.0,1.0,96,0.00,,,0.28,,2013-04-10 14:33:00,
2013-04-10 10:42:00,46.0,45.0,29.95,West,277,0.0,2.0,95,0.00,,,0.27,,2013-04-10 14:42:00,
2013-04-10 10:52:00,46.0,45.0,29.95,West,277,0.0,2.0,95,0.00,,,0.27,,2013-04-10 14:52:00,
2013-04-10 11:02:00,47.0,45.0,29.94,WNW,294,0.0,3.0,93,0.00,,,0.27,,2013-04-10 15:02:00,
2013-04-10 11:12:00,47.0,45.0,29.94,WNW,294,0.0,3.0,93,0.00,,,0.27,,2013-04-10 15:12:00,
2013-04-10 11:22:00,48.0,45.0,29.94,WNW,295,0.0,1.0,91,0.00,,,0.27,,2013-04-10 15:22:00,
2013-04-10 11:33:00,48.0,45.0,29.94,ENE,59,1.0,3.0,91,0.00,,,0.27,,2013-04-10 15:33:00,
2013-04-10 11:42:00,48.0,45.0,29.94,ENE,59,1.0,3.0,91,0.00,,,0.27,,2013-04-10 15:42:00,
2013-04-10 11:53:00,49.0,46.0,29.93,South,188,1.0,2.0,91,0.00,,,0.27,,2013-04-10 15:53:00,
2013-04-10 12:03:00,50.0,47.0,29.93,ENE,60,0.0,2.0,89,0.00,,,0.27,,2013-04-10 16:03:00,
2013-04-10 12:13:00,50.0,47.0,29.93,ENE,60,0.0,2.0,89,0.00,,,0.27,,2013-04-10 16:13:00,
2013-04-10 12:23:00,50.0,47.0,29.91,ESE,121,0.0,4.0,88,0.00,,,0.27,,2013-04-10 16:23:00,
2013-04-10 12:33:00,52.0,48.0,29.91,NNW,336,0.0,2.0,85,0.00,,,0.27,,2013-04-10 16:33:00,
2013-04-10 12:43:00,52.0,48.0,29.91,NNW,336,0.0,2.0,85,0.00,,,0.27,,2013-04-10 16:43:00,
2013-04-10 12:53:00,52.0,47.0,29.91,SW,218,1.0,4.0,83,0.00,,,0.27,,2013-04-10 16:53:00,
2013-04-10 13:03:00,54.0,48.0,29.91,SSW,202,2.0,4.0,81,0.00,,,0.27,,2013-04-10 17:03:00,
2013-04-10 13:12:00,54.0,47.0,29.91,WNW,298,2.0,5.0,76,0.00,,,0.27,,2013-04-10 17:12:00,
2013-04-10 13:22:00,54.0,47.0,29.91,WNW,298,2.0,5.0,76,0.00,,,0.27,,2013-04-10 17:22:00,
2013-04-10 13:33:00,54.0,47.0,29.91,SSW,206,1.0,3.0,77,0.00,,,0.27,,2013-04-10 17:33:00,
2013-04-10 13:43:00,54.0,47.0,29.91,SSW,206,1.0,3.0,77,0.00,,,0.27,,2013-04-10 17:43:00,
2013-04-10 13:53:00,55.0,48.0,29.90,WSW,250,1.0,5.0,76,0.00,,,0.27,,2013-04-10 17:53:00,
2013-04-10 14:03:00,56.0,46.0,29.91,SSW,200,1.0,5.0,70,0.00,,,0.27,,2013-04-10 18:03:00,
2013-04-10 14:12:00,56.0,46.0,29.91,SSW,200,1.0,5.0,70,0.00,,,0.27,,2013-04-10 18:12:00,
2013-04-10 14:23:00,55.0,45.0,29.90,NW,320,3.0,8.0,70,0.00,,,0.27,,2013-04-10 18:23:00,
2013-04-10 14:33:00,55.0,46.0,29.90,SW,217,2.0,5.0,71,0.00,,,0.27,,2013-04-10 18:33:00,
2013-04-10 14:42:00,55.0,46.0,29.90,SW,217,2.0,5.0,71,0.00,,,0.27,,2013-04-10 18:42:00,
2013-04-10 14:53:00,54.0,45.0,29.91,SSW,197,4.0,7.0,71,0.00,,,0.27,,2013-04-10 18:53:00,
2013-04-10 15:03:00,54.0,45.0,29.90,SSW,192,3.0,7.0,72,0.00,,,0.27,,2013-04-10 19:03:00,
2013-04-10 15:12:00,54.0,45.0,29.90,SSW,192,3.0,7.0,72,0.00,,,0.27,,2013-04-10 19:12:00,
2013-04-10 15:22:00,53.0,45.0,29.91,SW,228,2.0,6.0,74,0.00,,,0.27,,2013-04-10 19:22:00,
2013-04-10 15:33:00,53.0,45.0,29.90,WSW,238,5.0,9.0,74,0.00,,,0.27,,2013-04-10 19:33:00,
2013-04-10 15:42:00,53.0,45.0,29.90,WSW,238,5.0,9.0,74,0.00,,,0.27,,2013-04-10 19:42:00,
2013-04-10 15:53:00,54.0,45.0,29.88,WNW,283,3.0,7.0,72,0.00,,,0.27,,2013-04-10 19:53:00,
2013-04-10 16:03:00,54.0,44.0,29.85,South,172,2.0,8.0,70,0.00,,,0.27,,2013-04-10 20:03:00,
2013-04-10 16:12:00,54.0,44.0,29.86,West,267,2.0,6.0,69,0.00,,,0.27,,2013-04-10 20:12:00,
2013-04-10 16:23:00,54.0,44.0,29.86,West,267,2.0,6.0,69,0.00,,,0.27,,2013-04-10 20:23:00,
2013-04-10 16:33:00,54.0,44.0,29.87,WNW,286,1.0,8.0,69,0.00,,,0.27,,2013-04-10 20:33:00,
2013-04-10 16:42:00,53.0,43.0,29.87,NW,312,1.0,5.0,70,0.00,,,0.27,,2013-04-10 20:42:00,
2013-04-10 16:52:00,53.0,43.0,29.87,NW,312,1.0,5.0,70,0.00,,,0.27,,2013-04-10 20:52:00,
2013-04-10 17:03:00,53.0,43.0,29.87,NW,312,1.0,5.0,70,0.00,,,0.27,,2013-04-10 21:03:00,
2013-04-10 17:13:00,53.0,45.0,29.88,West,275,0.0,2.0,73,0.00,,,0.27,,2013-04-10 21:13:00,
2013-04-10 17:22:00,53.0,45.0,29.88,West,275,0.0,2.0,73,0.00,,,0.27,,2013-04-10 21:22:00,
2013-04-10 17:33:00,53.0,45.0,29.87,West,276,0.0,2.0,74,0.00,,,0.27,,2013-04-10 21:33:00,
2013-04-10 17:43:00,53.0,45.0,29.87,West,276,0.0,2.0,74,0.00,,,0.27,,2013-04-10 21:43:00,
2013-04-10 17:53:00,52.0,44.0,29.87,WNW,284,1.0,3.0,74,0.00,,,0.27,,2013-04-10 21:53:00,
2013-04-10 18:03:00,52.0,44.0,29.87,West,275,0.0,2.0,74,0.00,,,0.27,,2013-04-10 22:03:00,
2013-04-10 18:13:00,51.0,45.0,29.87,West,276,327.0,327.0,79,-99.99,,,-99.99,,2013-04-10 22:13:00,
2013-04-10 18:23:00,51.0,45.0,29.87,West,276,327.0,327.0,79,-99.99,,,-99.99,,2013-04-10 22:23:00,
2013-04-10 18:34:00,51.0,45.0,29.87,West,276,327.0,327.0,79,-99.99,,,-99.99,,2013-04-10 22:34:00,
2013-04-10 18:42:00,51.0,45.0,29.87,West,276,327.0,327.0,79,-99.99,,,-99.99,,2013-04-10 22:42:00,
2013-04-10 18:52:00,49.0,44.0,29.87,West,276,0.0,1.0,84,0.00,,,0.27,,2013-04-10 22:52:00,
2013-04-10 19:03:00,47.0,43.0,29.88,West,276,327.0,327.0,87,-99.99,,,-99.99,,2013-04-10 23:03:00,
2013-04-10 19:12:00,47.0,43.0,29.88,West,276,327.0,327.0,87,-99.99,,,-99.99,,2013-04-10 23:12:00,
2013-04-10 19:22:00,47.0,43.0,29.88,West,276,327.0,327.0,87,-99.99,,,-99.99,,2013-04-10 23:22:00,
2013-04-10 19:33:00,46.0,44.0,29.86,West,276,0.0,0.0,91,0.00,,,0.27,,2013-04-10 23:33:00,
2013-04-10 19:42:00,46.0,44.0,29.86,West,276,0.0,0.0,91,0.00,,,0.27,,2013-04-10 23:42:00,
2013-04-10 19:53:00,45.0,43.0,29.86,West,276,0.0,-999.0,92,-99.99,,,-99.99,,2013-04-10 23:53:00,
2013-04-10 20:02:00,45.0,43.0,29.85,West,276,0.0,0.0,93,0.00,,,0.27,,2013-04-11 00:02:00,
2013-04-10 20:13:00,45.0,43.0,29.89,West,276,0.0,0.0,94,0.03,,,0.30,,2013-04-11 00:13:00,
2013-04-10 20:22:00,45.0,43.0,29.89,West,276,0.0,0.0,94,0.03,,,0.30,,2013-04-11 00:22:00,
2013-04-10 20:32:00,45.0,43.0,29.88,West,276,0.0,0.0,94,0.04,,,0.31,,2013-04-11 00:32:00,
2013-04-10 20:43:00,44.0,42.0,29.89,West,276,0.0,0.0,94,0.06,,,0.33,,2013-04-11 00:43:00,
2013-04-10 20:53:00,44.0,42.0,29.89,West,276,0.0,0.0,94,0.06,,,0.33,,2013-04-11 00:53:00,
2013-04-10 21:02:00,44.0,43.0,29.88,West,276,327.0,327.0,95,-99.99,,,-99.99,,2013-04-11 01:02:00,
2013-04-10 21:12:00,44.0,43.0,29.88,West,276,327.0,327.0,95,-99.99,,,-99.99,,2013-04-11 01:12:00,
2013-04-10 21:22:00,44.0,43.0,29.88,West,276,327.0,327.0,95,-99.99,,,-99.99,,2013-04-11 01:22:00,
2013-04-10 21:32:00,43.0,42.0,29.90,West,276,0.0,0.0,95,0.06,,,0.37,,2013-04-11 01:32:00,
2013-04-10 21:42:00,43.0,42.0,29.91,West,276,327.0,327.0,95,-99.99,,,-99.99,,2013-04-11 01:42:00,
2013-04-10 21:52:00,43.0,42.0,29.91,West,276,327.0,327.0,95,-99.99,,,-99.99,,2013-04-11 01:52:00,
2013-04-10 22:03:00,43.0,42.0,29.89,West,276,327.0,327.0,95,-99.99,,,-99.99,,2013-04-11 02:03:00,
2013-04-10 22:12:00,43.0,42.0,29.88,West,276,0.0,1.0,95,0.07,,,0.43,,2013-04-11 02:12:00,
2013-04-10 22:22:00,43.0,42.0,29.88,West,276,0.0,1.0,95,0.07,,,0.43,,2013-04-11 02:22:00,
2013-04-10 22:32:00,43.0,42.0,29.88,West,276,0.0,1.0,95,0.07,,,0.43,,2013-04-11 02:32:00,
2013-04-10 22:42:00,43.0,42.0,29.88,West,276,0.0,1.0,95,0.07,,,0.43,,2013-04-11 02:42:00,
2013-04-10 22:52:00,42.0,41.0,29.89,West,276,0.0,0.0,95,0.03,,,0.44,,2013-04-11 02:52:00,
2013-04-10 23:02:00,42.0,41.0,29.88,West,276,327.0,327.0,96,-99.99,,,-99.99,,2013-04-11 03:02:00,
2013-04-10 23:12:00,42.0,41.0,29.88,West,276,327.0,327.0,96,-99.99,,,-99.99,,2013-04-11 03:12:00,
2013-04-10 23:22:00,42.0,41.0,29.88,West,276,327.0,327.0,96,-99.99,,,-99.99,,2013-04-11 03:22:00,
2013-04-10 23:33:00,42.0,41.0,29.89,West,276,0.0,0.0,96,0.04,,,0.48,,2013-04-11 03:33:00,
2013-04-10 23:43:00,42.0,41.0,29.90,West,276,0.0,0.0,96,0.04,,,0.49,,2013-04-11 03:43:00,
2013-04-10 23:54:00,42.0,41.0,29.90,West,276,0.0,0.0,96,0.04,,,0.49,,2013-04-11 03:54:00,